Wind_Speed
15 16 16 17 17 18 19 19 20 20 20 21 21 22 22 22 22 22 22 22 23 22 22 21 22 23 22 22 21 19 17 16 15 15 15 15 15 16 16 15 16 15 15 15
17 18 18 18 18 19 19 20 20 20 20 20 21 22 22 22 21 21 21 21 22 22 21 21 21 21 21 20 18 17 16 16 15 14 15 15 15 15 15 15 14 14 14 14
18 19 19 19 19 20 20 21 21 20 20 20 20 21 22 21 21 21 21 22 22 20 20 20 20 20 19 18 16 15 16 15 15 15 14 14 15 14 14 14 14 14 14 14
20 20 20 20 20 20 21 21 21 20 20 20 21 21 21 21 21 21 21 21 20 20 20 19 19 19 18 17 15 15 15 16 15 14 14 14 14 14 13 14 14 13 13 14
22 21 21 20 20 21 21 21 21 20 20 21 21 21 21 22 21 21 21 19 19 20 20 19 18 18 18 16 15 16 15 16 15 15 15 14 14 13 13 14 14 13 13 14
23 23 22 21 21 22 22 21 21 21 21 21 22 22 21 21 21 21 20 19 19 19 19 18 18 18 17 16 15 15 16 16 15 15 15 15 14 13 14 14 13 12 12 13
24 24 23 23 22 22 22 22 22 21 21 21 22 22 21 21 21 22 20 19 19 18 18 18 17 17 16 15 15 15 15 15 15 15 14 14 13 12 12 13 13 12 13 13
25 25 23 23 22 22 22 22 22 22 22 22 22 22 21 21 21 21 20 18 18 17 17 17 17 16 15 14 14 14 14 14 14 15 14 13 12 12 12 12 12 12 13 14
26 26 25 24 24 23 23 22 22 22 22 22 22 22 21 21 21 20 19 17 16 16 16 16 16 15 14 13 13 13 13 13 13 13 13 12 12 12 12 11 12 13 13 14
27 26 26 26 25 24 23 23 23 23 23 22 22 22 22 22 21 20 18 16 15 15 15 15 15 14 13 12 12 12 13 12 12 12 11 11 11 12 12 13 13 14 14 15
28 27 27 27 26 26 25 24 24 24 23 22 22 22 22 22 20 19 18 16 15 15 14 14 14 12 11 11 11 11 12 12 12 11 11 11 12 12 12 12 13 14 15 15
29 28 28 27 27 27 26 25 25 25 23 22 22 22 21 21 20 18 17 16 15 15 14 13 13 11 10 10 10 10 11 11 11 11 11 11 11 12 12 12 13 14 15 16
29 29 29 29 28 28 28 27 26 25 23 22 22 21 21 20 19 17 16 15 15 14 13 13 13 11 10 10 10 10 10 10 10 10 11 11 11 11 12 12 13 14 16 17
30 30 30 29 29 28 27 27 25 24 24 23 22 21 20 19 18 17 16 15 14 13 13 12 12 10 9 9 9 8 8 8 9 9 10 10 11 11 11 12 13 14 15 17
30 30 30 30 29 28 27 26 25 25 25 24 23 21 20 19 18 17 15 14 14 13 12 12 11 10 9 8 7 6 6 7 8 8 9 9 9 10 11 12 13 14 16 17
31 31 31 30 29 28 27 27 26 25 25 24 23 21 20 19 17 16 15 14 14 13 12 11 10 10 8 7 6 5 6 6 7 8 8 8 8 9 10 12 14 15 16 18
32 31 31 30 28 28 27 27 26 25 24 24 22 21 20 18 17 16 15 14 14 13 12 11 10 9 7 6 5 5 5 6 6 6 6 6 7 8 10 12 13 15 17 19
31 31 30 30 29 28 28 27 26 25 24 23 22 21 19 18 17 16 15 14 13 12 12 11 9 8 7 6 5 5 5 5 5 5 5 6 7 8 10 12 14 15 17 19
30 29 29 29 28 28 27 27 26 25 24 23 21 20 19 18 16 15 15 14 13 13 12 11 9 8 7 6 5 5 5 4 3 3 4 5 6 8 9 11 14 15 17 19
28 27 27 27 27 27 26 25 25 24 23 22 21 20 19 18 17 15 15 14 13 12 11 10 9 8 7 6 6 5 4 3 3 3 3 5 6 8 9 11 13 15 17 19
26 26 26 26 25 25 24 23 23 23 23 22 20 19 19 18 17 16 15 14 13 12 11 11 10 9 7 7 6 5 4 3 3 2 3 4 5 7 9 11 13 15 17 18
24 24 24 24 24 24 23 22 22 22 21 21 19 18 18 18 17 16 15 14 13 13 12 11 10 9 8 7 6 5 4 3 2 2 3 4 5 7 9 11 13 15 17 18
22 22 23 23 23 23 22 21 21 21 20 20 19 18 18 18 17 17 15 14 14 13 12 11 10 9 9 8 7 6 5 4 3 3 3 4 5 7 9 11 12 15 17 18
23 23 23 23 22 22 22 21 21 20 20 20 19 19 19 18 18 17 16 15 14 13 12 11 11 10 9 8 8 7 6 5 4 4 4 5 6 7 9 10 12 14 16 18
23 23 23 23 22 22 22 22 21 20 20 19 20 20 19 19 18 17 16 15 15 14 13 13 12 11 10 9 8 8 6 5 5 4 5 5 6 7 9 10 12 14 16 18
24 24 24 24 24 24 23 22 21 20 20 20 20 20 20 19 19 18 17 16 16 15 14 14 13 12 11 10 10 9 7 6 6 5 5 6 6 8 9 10 12 14 17 19
25 25 25 25 25 25 24 23 22 21 21 21 21 21 20 20 20 19 18 17 17 16 15 15 14 13 12 11 11 10 8 7 6 6 6 6 7 8 9 11 12 14 17 18
Wind_Direction
302 305 307 308 308 308 308 309 309 310 309 310 314 316 318 318 318 321 320 320 318 317 319 323 325 326 325 325 325 328 328 324 320 317 316 315 316 314 313 310 303 305 308 307
303 303 301 304 307 308 309 310 308 309 309 309 313 315 318 318 319 319 321 322 321 318 320 323 325 326 327 328 328 331 331 328 323 321 320 319 318 317 317 316 309 306 311 311
300 301 301 302 304 305 307 308 308 307 309 311 313 316 319 320 320 320 322 322 320 321 323 325 326 328 330 331 332 334 335 334 330 326 324 323 322 320 320 319 315 312 316 315
296 297 299 303 303 303 305 307 306 305 307 309 313 315 316 317 318 320 321 322 321 322 325 328 328 329 331 332 335 336 338 339 338 335 331 327 325 324 323 323 321 318 321 321
296 296 298 301 302 302 304 304 305 304 305 307 309 311 313 313 316 319 319 321 323 324 325 328 328 330 332 333 336 338 340 341 343 341 337 333 331 329 328 330 327 321 323 327
295 295 297 299 299 300 301 302 304 305 304 306 307 309 311 313 315 317 318 319 322 324 326 327 328 330 330 331 336 339 339 340 343 343 342 340 338 334 332 335 334 329 332 334
293 294 295 297 296 297 300 302 303 303 303 305 306 308 310 311 314 317 318 317 319 322 324 327 328 329 328 329 332 337 339 342 345 345 343 344 345 344 345 348 347 346 346 344
292 294 295 294 293 294 296 298 300 301 302 303 303 305 308 310 311 316 317 317 318 320 323 324 325 326 326 327 332 337 341 343 345 348 349 349 351 353 356 356 353 351 351 350
290 292 292 292 292 292 293 295 296 298 299 301 302 303 306 309 310 311 314 314 315 317 320 322 325 326 327 328 334 341 342 342 345 349 353 354 356 358 359 359 358 357 355 352
289 289 290 290 290 289 290 293 294 295 296 298 302 303 305 306 308 308 309 307 309 315 319 321 324 325 326 329 337 345 350 352 353 354 357 1 3 3 2 0 358 358 358 356
287 287 287 287 287 287 288 290 292 293 293 295 300 303 304 305 306 307 306 306 306 310 314 315 319 322 326 330 334 342 349 353 355 356 359 2 4 4 3 3 3 3 360 357
284 284 283 283 283 283 284 286 287 289 289 291 296 301 304 304 303 303 303 303 304 306 309 312 316 320 325 328 332 340 347 353 357 2 4 3 4 5 5 7 7 5 3 1
283 282 282 282 282 281 282 284 285 286 285 286 291 296 301 302 300 301 300 300 303 304 306 311 315 316 319 325 330 336 344 351 358 1 1 2 4 6 8 12 13 11 8 7
281 280 280 281 280 279 278 280 281 282 282 283 287 292 295 297 298 297 297 298 300 301 302 307 309 310 313 318 325 333 341 348 355 357 358 3 7 9 11 12 12 10 8 6
277 277 278 279 278 276 275 277 277 278 279 281 284 287 289 291 292 292 292 293 294 295 297 299 301 302 308 314 321 330 338 346 351 353 356 1 7 10 12 11 10 8 6 4
275 275 276 276 275 274 273 274 274 275 276 278 280 282 283 286 288 286 287 288 289 290 291 292 293 296 302 307 311 320 330 339 344 347 351 358 5 6 8 8 7 6 5 4
274 274 273 271 270 270 271 272 272 273 272 274 275 276 277 279 280 280 282 282 282 283 285 287 288 291 295 297 300 305 316 329 336 342 348 353 359 1 5 6 5 4 3 3
274 273 270 268 267 267 269 270 269 269 268 269 272 271 271 272 272 274 274 274 273 277 279 280 280 283 282 283 284 289 306 316 327 339 346 350 354 358 4 4 3 3 3 2
273 271 268 266 265 265 265 266 267 267 267 267 268 266 265 264 266 267 267 266 268 271 271 270 270 270 269 271 273 282 292 299 312 329 343 350 356 1 2 2 2 3 2 3
271 269 267 265 264 263 263 264 265 264 262 263 264 261 258 259 261 263 263 262 264 266 262 261 262 259 258 259 266 274 279 282 294 313 333 342 351 358 359 359 360 1 2 3
269 270 266 263 262 261 260 261 263 262 260 260 260 256 253 256 259 260 260 257 257 258 257 258 254 247 246 251 256 259 263 264 277 298 324 337 346 351 354 356 358 359 360 2
265 265 263 260 259 259 259 260 261 262 260 259 257 253 251 251 254 256 257 254 250 252 253 252 247 241 240 243 243 243 241 246 260 287 314 329 339 345 349 352 356 357 357 359
262 262 261 260 259 259 259 260 263 264 260 257 254 251 249 249 250 252 251 248 246 246 244 243 238 234 237 238 236 231 229 236 252 273 299 321 333 339 342 347 352 354 355 356
262 261 259 258 257 257 258 260 262 261 259 254 250 248 248 248 248 249 247 243 243 240 238 238 234 232 234 233 229 225 226 232 244 260 284 308 325 334 337 343 348 351 353 353
257 256 255 256 256 257 260 261 260 258 254 250 248 246 246 246 247 245 242 240 239 235 235 233 230 229 229 225 221 221 226 236 248 264 285 300 318 330 336 341 345 348 349 350
258 256 254 256 257 259 260 260 259 258 251 248 247 245 244 244 244 240 237 237 235 232 231 229 226 224 222 219 216 216 223 236 250 264 279 295 313 325 330 335 339 343 346 347
256 253 253 256 259 261 261 261 260 258 252 248 246 244 242 241 239 236 235 232 231 230 228 222 219 218 218 217 217 218 225 236 247 262 277 290 306 317 323 329 334 338 342 345
Height
5830 5828 5826 5825 5823 5820 5817 5815 5812 5809 5806 5803 5800 5796 5793 5789 5785 5781 5777 5773 5769 5766 5762 5759 5755 5751 5746 5743 5738 5735 5732 5729 5727 5725 5724 5722 5720 5719 5717 5715 5713 5711 5710 5709
5827 5825 5824 5822 5820 5817 5814 5811 5809 5806 5803 5800 5796 5793 5789 5785 5782 5778 5774 5770 5766 5763 5759 5755 5752 5748 5744 5740 5737 5733 5730 5727 5725 5723 5721 5719 5717 5715 5713 5712 5710 5708 5707 5705
5824 5822 5820 5819 5816 5813 5811 5808 5805 5802 5800 5796 5793 5790 5786 5783 5779 5775 5771 5767 5763 5759 5756 5752 5749 5746 5742 5739 5735 5732 5729 5726 5723 5721 5718 5716 5714 5712 5711 5709 5707 5705 5704 5703
5820 5819 5817 5817 5812 5809 5807 5804 5801 5798 5795 5792 5789 5786 5783 5779 5775 5772 5768 5764 5760 5757 5753 5750 5747 5744 5741 5737 5734 5731 5728 5725 5721 5718 5716 5714 5712 5710 5708 5706 5704 5703 5701 5700
5815 5813 5812 5811 5807 5804 5802 5800 5797 5794 5791 5788 5786 5783 5779 5776 5772 5768 5765 5761 5758 5755 5751 5748 5745 5742 5739 5736 5733 5730 5727 5723 5720 5717 5714 5712 5710 5708 5706 5704 5702 5701 5699 5697
5809 5807 5806 5806 5803 5799 5798 5796 5793 5790 5787 5784 5782 5779 5777 5773 5769 5765 5761 5758 5755 5752 5749 5746 5743 5740 5737 5734 5731 5728 5725 5723 5719 5716 5713 5711 5708 5706 5704 5702 5700 5699 5697 5695
5803 5801 5800 5799 5797 5795 5794 5792 5788 5785 5783 5780 5777 5775 5772 5768 5765 5762 5758 5755 5752 5749 5747 5744 5741 5738 5735 5733 5730 5727 5724 5721 5718 5715 5712 5710 5707 5705 5703 5701 5699 5697 5695 5693
5798 5796 5797 5793 5791 5790 5788 5785 5783 5780 5778 5776 5773 5770 5767 5764 5761 5758 5755 5752 5749 5747 5744 5742 5739 5736 5734 5731 5729 5726 5723 5720 5718 5715 5712 5709 5707 5705 5702 5700 5699 5697 5694 5692
5792 5792 5789 5787 5785 5784 5782 5780 5778 5775 5773 5771 5768 5766 5763 5760 5757 5754 5751 5749 5747 5744 5742 5739 5737 5734 5732 5730 5728 5725 5723 5720 5717 5714 5712 5709 5707 5705 5703 5701 5699 5696 5694 5691
5785 5784 5782 5780 5779 5777 5775 5774 5772 5770 5768 5766 5764 5761 5758 5756 5753 5750 5748 5745 5743 5742 5739 5737 5735 5733 5731 5729 5727 5725 5722 5719 5716 5714 5712 5710 5708 5705 5703 5701 5699 5696 5694 5691
5777 5777 5775 5773 5772 5770 5769 5767 5766 5764 5762 5760 5758 5756 5753 5751 5749 5746 5744 5742 5740 5739 5737 5735 5733 5731 5729 5728 5726 5724 5721 5719 5716 5714 5712 5710 5708 5706 5704 5702 5699 5697 5694 5691
5770 5769 5767 5767 5765 5763 5762 5761 5760 5758 5757 5755 5753 5751 5749 5747 5745 5742 5740 5739 5738 5736 5735 5733 5731 5730 5728 5726 5725 5723 5721 5719 5717 5715 5713 5711 5709 5707 5704 5702 5700 5697 5694 5691
5761 5760 5759 5758 5757 5756 5755 5754 5753 5752 5751 5750 5748 5746 5745 5743 5740 5739 5737 5736 5734 5733 5732 5731 5729 5728 5726 5725 5723 5722 5720 5719 5717 5715 5714 5712 5709 5707 5705 5703 5700 5698 5695 5692
5752 5751 5750 5749 5748 5747 5747 5746 5746 5745 5745 5744 5743 5741 5740 5738 5736 5735 5734 5732 5731 5730 5729 5728 5727 5726 5724 5723 5722 5721 5720 5718 5717 5715 5714 5712 5710 5708 5706 5704 5701 5699 5696 5693
5743 5742 5741 5740 5740 5739 5739 5739 5739 5739 5738 5738 5737 5736 5735 5734 5732 5731 5730 5729 5728 5728 5727 5726 5725 5724 5723 5721 5720 5720 5719 5718 5717 5715 5713 5712 5710 5708 5706 5704 5702 5699 5696 5693
5734 5732 5732 5731 5731 5731 5731 5731 5731 5732 5732 5731 5731 5731 5730 5729 5728 5727 5726 5725 5725 5724 5724 5723 5722 5721 5720 5720 5719 5718 5718 5717 5716 5715 5713 5712 5710 5709 5707 5705 5702 5700 5697 5694
5724 5723 5723 5723 5723 5723 5723 5724 5724 5724 5724 5725 5725 5725 5724 5724 5723 5723 5722 5722 5721 5721 5720 5720 5719 5719 5718 5718 5717 5717 5717 5716 5715 5714 5713 5712 5710 5709 5707 5705 5703 5700 5697 5694
5713 5713 5713 5714 5715 5715 5715 5716 5716 5717 5717 5718 5718 5718 5718 5718 5718 5718 5718 5717 5718 5718 5717 5717 5717 5716 5716 5716 5716 5715 5715 5715 5714 5713 5712 5711 5710 5709 5707 5705 5703 5701 5697 5694
5705 5704 5705 5705 5706 5707 5707 5708 5709 5710 5710 5711 5711 5712 5712 5713 5713 5713 5713 5713 5714 5714 5714 5714 5714 5714 5714 5714 5714 5714 5714 5713 5713 5712 5712 5711 5710 5709 5707 5705 5703 5700 5697 5694
5696 5696 5696 5697 5698 5699 5700 5701 5702 5702 5703 5704 5705 5706 5707 5707 5708 5708 5709 5709 5710 5710 5710 5710 5711 5711 5711 5712 5712 5712 5712 5712 5712 5712 5711 5710 5710 5708 5707 5705 5703 5700 5697 5694
5689 5689 5689 5689 5690 5692 5692 5694 5695 5696 5697 5698 5699 5700 5701 5702 5703 5704 5705 5705 5706 5706 5707 5707 5707 5708 5709 5710 5710 5710 5711 5711 5711 5711 5710 5710 5709 5708 5706 5705 5702 5700 5697 5693
5681 5681 5682 5682 5684 5685 5686 5687 5688 5689 5690 5692 5693 5694 5696 5697 5698 5699 5700 5701 5702 5703 5703 5704 5704 5705 5706 5707 5708 5709 5709 5709 5710 5710 5709 5709 5708 5707 5706 5704 5702 5699 5696 5693
5674 5674 5675 5676 5677 5679 5680 5681 5682 5684 5685 5686 5687 5689 5690 5692 5693 5694 5696 5697 5698 5699 5700 5701 5702 5703 5704 5705 5706 5707 5707 5708 5708 5708 5708 5708 5707 5706 5705 5703 5701 5699 5696 5692
5667 5668 5669 5670 5671 5672 5674 5675 5676 5678 5679 5680 5682 5683 5685 5687 5688 5689 5691 5692 5694 5695 5696 5697 5699 5700 5701 5703 5704 5705 5705 5706 5707 5707 5707 5706 5706 5705 5704 5702 5700 5697 5694 5691
5660 5661 5662 5663 5665 5666 5667 5668 5670 5671 5672 5674 5676 5678 5679 5681 5683 5685 5686 5688 5689 5691 5692 5694 5695 5697 5699 5700 5701 5702 5704 5704 5705 5705 5705 5705 5704 5703 5702 5701 5699 5696 5693 5690
5652 5654 5655 5657 5658 5659 5660 5662 5663 5664 5666 5668 5670 5672 5673 5675 5677 5679 5681 5683 5685 5687 5688 5690 5692 5694 5695 5697 5698 5700 5701 5702 5703 5703 5703 5703 5702 5702 5701 5699 5697 5694 5691 5688
5645 5646 5648 5650 5651 5652 5653 5655 5656 5658 5659 5661 5663 5666 5668 5670 5672 5674 5676 5678 5680 5682 5684 5686 5689 5691 5693 5694 5696 5697 5699 5700 5701 5701 5701 5701 5700 5700 5698 5697 5695 5692 5689 5686